�N����,����,�~����,�C��,���x,�C��,����,���ϕ���,�ő�u�ԕ���,�ő厞����,���˗�,�I�_���x,�n�����x,�ő啗���N��,DTYPE
"21/09/02","00:10",0.0,26.2,81.7,1001.9,319.0,0.7,1.9,338.3,0.00,22.9,26.7,"00:00:16",1
"21/09/02","00:20",0.0,26.2,82.5,1002.2,325.8,0.8,2.1,344.5,0.00,23.0,26.6,"00:19:44",1
"21/09/02","00:30",0.0,26.0,83.1,1001.9,316.8,0.8,1.3,4.8,0.00,22.9,26.6,"00:20:40",1
"21/09/02","00:40",0.0,25.9,83.6,1002.2,307.8,0.5,1.0,329.5,0.00,22.9,26.6,"00:33:52",1
"21/09/02","00:50",0.0,25.8,84.1,1002.2,331.7,0.5,1.0,339.8,0.00,22.9,26.4,"00:45:52",1
"21/09/02","01:00",0.0,25.6,84.7,1002.2,316.9,0.5,1.1,349.2,0.00,22.9,26.5,"00:54:08",1
"21/09/02","01:10",0.0,25.6,85.6,1002.2,325.2,0.8,1.9,348.5,0.00,23.0,26.4,"01:00:02",1
"21/09/02","01:20",0.2,25.5,86.3,1002.2,341.3,0.7,1.4,350.8,0.00,23.1,26.6,"01:10:24",1
"21/09/02","01:30",0.2,25.3,86.9,1002.2,332.0,0.7,1.2,333.8,0.00,23.0,26.7,"01:22:16",1
"21/09/02","01:40",0.0,25.1,87.4,1002.4,301.6,0.5,0.8,319.6,0.00,22.9,26.6,"01:30:16",1
"21/09/02","01:50",0.0,25.0,87.9,1002.4,333.6,0.5,1.0,322.4,0.00,22.9,26.4,"01:42:56",1
"21/09/02","02:00",0.2,25.1,88.4,1002.2,55.2,0.3,0.6,32.5,0.00,23.1,26.6,"01:55:52",1
"21/09/02","02:10",0.2,25.0,88.9,1002.2,304.3,0.5,0.6,326.9,0.00,23.1,26.5,"02:00:08",1
"21/09/02","02:20",1.0,24.9,89.2,1002.2,317.3,0.2,0.6,321.6,0.00,23.0,26.4,"02:10:16",1
"21/09/02","02:30",0.6,24.9,89.5,1002.2,333.7,0.5,1.1,352.3,0.00,23.1,26.3,"02:22:24",1
"21/09/02","02:40",0.2,24.7,89.8,1002.2,185.2,0.6,1.0,157.9,0.00,23.0,26.3,"02:35:12",1
"21/09/02","02:50",0.2,24.9,90.1,1002.2,341.2,0.5,0.9,348.6,0.00,23.2,26.4,"02:44:00",1
"21/09/02","03:00",0.2,24.9,90.6,1001.7,355.2,0.6,1.3,341.4,0.00,23.3,26.5,"02:51:04",1
"21/09/02","03:10",0.0,24.8,90.9,1001.7,346.8,0.6,1.3,347.7,0.00,23.3,26.3,"03:04:00",1
"21/09/02","03:20",0.0,24.6,91.1,1002.2,342.5,0.2,0.8,47.7,0.00,23.1,26.3,"03:17:52",1
"21/09/02","03:30",0.2,24.7,91.4,1001.7,73.1,0.3,1.0,89.6,0.00,23.2,26.4,"03:25:04",1
"21/09/02","03:40",0.0,24.7,91.6,1001.7,0.2,0.2,0.9,344.3,0.00,23.3,26.3,"03:32:16",1
"21/09/02","03:50",0.2,24.7,91.8,1001.5,90.9,0.6,1.6,338.0,0.00,23.3,26.3,"03:41:04",1
"21/09/02","04:00",0.0,24.5,91.9,1001.7,272.7,1.1,4.3,228.9,0.00,23.1,26.4,"03:50:02",1
"21/09/02","04:10",0.2,24.5,92.1,1001.7,259.4,1.2,3.7,228.6,0.00,23.2,26.5,"04:00:08",1
"21/09/02","04:20",0.0,24.6,92.1,1001.9,286.6,1.2,3.7,238.4,0.00,23.3,26.1,"04:11:44",1
"21/09/02","04:30",0.0,24.6,92.0,1001.7,287.1,0.7,2.1,240.5,0.00,23.3,26.4,"04:25:28",1
"21/09/02","04:40",0.0,24.6,92.0,1001.9,318.6,0.6,1.6,227.6,0.00,23.3,26.2,"04:30:56",1
"21/09/02","04:50",0.0,24.6,92.0,1001.9,340.1,1.0,2.2,359.0,0.00,23.3,26.3,"04:42:16",1
"21/09/02","05:00",0.0,24.5,92.1,1001.9,359.9,0.7,1.3,31.9,0.00,23.2,26.2,"04:58:48",1
"21/09/02","05:10",0.2,24.3,92.2,1001.7,329.7,0.5,1.4,335.7,0.00,23.0,26.1,"05:04:08",1
"21/09/02","05:20",0.0,24.2,92.4,1001.9,308.9,0.7,1.3,331.1,0.00,22.9,26.5,"05:13:52",1
"21/09/02","05:30",0.0,24.2,92.4,1001.9,315.5,0.6,1.7,344.8,0.00,22.9,26.2,"05:26:40",1
"21/09/02","05:40",0.0,24.1,92.5,1001.9,317.4,0.6,1.7,321.0,0.00,22.8,26.1,"05:32:08",1
"21/09/02","05:50",0.0,24.1,92.7,1001.9,313.7,0.6,1.8,337.9,0.00,22.9,26.2,"05:48:24",1
"21/09/02","06:00",0.0,24.2,92.9,1002.2,320.0,1.0,1.9,325.5,0.00,23.0,26.2,"05:55:20",1
"21/09/02","06:10",0.0,24.3,92.9,1001.9,281.9,1.2,3.9,335.4,0.00,23.1,26.2,"06:08:56",1
"21/09/02","06:20",0.0,24.4,92.8,1001.9,331.6,1.2,2.4,355.1,0.00,23.2,26.2,"06:16:32",1
"21/09/02","06:30",0.0,24.5,92.8,1001.7,308.3,1.0,1.8,335.9,0.00,23.3,26.2,"06:26:32",1
"21/09/02","06:40",0.0,24.4,92.6,1001.7,285.6,0.8,3.4,232.2,0.00,23.2,26.1,"06:39:52",1
"21/09/02","06:50",0.0,24.6,92.8,1001.7,269.7,1.2,3.6,238.3,0.00,23.4,26.2,"06:45:12",1
"21/09/02","07:00",0.0,24.6,92.6,1001.9,323.5,1.2,3.1,333.4,0.01,23.4,26.0,"06:55:44",1
"21/09/02","07:10",0.0,24.9,92.6,1001.9,317.8,0.8,2.7,338.6,0.04,23.7,26.1,"07:01:44",1
"21/09/02","07:20",0.0,24.9,92.4,1001.9,306.7,1.1,2.0,253.6,0.01,23.6,26.0,"07:12:32",1
"21/09/02","07:30",0.0,24.8,92.2,1001.9,292.4,1.0,3.5,305.8,0.02,23.5,26.1,"07:25:36",1
"21/09/02","07:40",0.0,24.6,91.6,1002.2,272.5,1.5,3.9,331.9,0.02,23.2,26.0,"07:38:32",1
"21/09/02","07:50",0.0,24.7,91.4,1002.2,286.3,1.3,3.6,323.6,0.02,23.2,25.9,"07:48:08",1
"21/09/02","08:00",0.0,24.7,90.9,1002.2,296.6,1.5,3.4,352.8,0.02,23.2,26.1,"07:57:44",1
"21/09/02","08:10",0.2,24.8,90.7,1002.2,314.1,1.2,2.6,330.8,0.02,23.2,26.1,"08:06:24",1
"21/09/02","08:20",0.6,24.7,90.5,1002.2,291.7,0.7,1.9,221.1,0.01,23.1,26.1,"08:19:04",1
"21/09/02","08:30",0.4,24.6,90.5,1001.9,337.0,1.0,2.2,344.3,0.02,23.0,25.9,"08:29:36",1
"21/09/02","08:40",0.2,24.6,90.5,1001.9,309.2,0.7,1.8,333.2,0.03,23.0,26.0,"08:33:36",1
"21/09/02","08:50",0.0,24.7,90.4,1002.2,288.0,0.5,1.1,349.1,0.05,23.1,25.9,"08:46:32",1
"21/09/02","09:00",0.2,24.8,90.3,1002.4,322.6,0.8,2.7,264.3,0.05,23.1,26.0,"08:55:52",1
"21/09/02","09:10",0.0,24.9,90.3,1002.6,330.3,0.8,2.2,331.6,0.05,23.2,26.2,"09:08:40",1
"21/09/02","09:20",0.2,24.7,90.2,1002.6,334.6,1.3,2.6,333.3,0.06,23.0,25.9,"09:13:52",1
"21/09/02","09:30",0.0,24.6,90.3,1002.4,328.0,1.2,2.9,323.2,0.04,22.9,26.1,"09:29:36",1
"21/09/02","09:40",0.0,24.6,90.4,1002.4,328.4,1.3,2.9,340.1,0.07,23.0,26.2,"09:31:20",1
"21/09/02","09:50",0.2,24.9,90.5,1002.4,316.9,1.0,2.2,354.2,0.08,23.3,26.0,"09:42:48",1
"21/09/02","10:00",0.0,24.9,90.5,1002.6,320.6,1.0,1.8,354.0,0.09,23.3,26.1,"09:51:44",1
"21/09/02","10:10",0.0,25.3,90.3,1002.4,314.1,0.7,1.9,2.4,0.12,23.6,26.0,"10:07:12",1
"21/09/02","10:20",0.0,25.3,90.2,1002.6,298.0,0.7,2.5,351.1,0.09,23.6,26.2,"10:12:00",1
"21/09/02","10:30",0.4,25.1,89.9,1002.6,319.3,0.8,2.0,343.8,0.07,23.4,26.1,"10:26:32",1
"21/09/02","10:40",0.0,25.0,89.9,1002.2,299.3,0.6,1.7,351.7,0.05,23.3,26.0,"10:32:24",1
"21/09/02","10:50",0.0,25.0,90.0,1002.6,323.8,0.7,1.9,350.4,0.03,23.3,26.2,"10:43:12",1
"21/09/02","11:00",0.2,25.0,89.9,1001.9,342.3,0.5,1.2,326.5,0.02,23.3,26.0,"10:57:28",1
"21/09/02","11:10",2.0,24.6,90.1,1002.4,274.8,0.7,2.9,190.9,0.03,22.9,26.1,"11:04:48",1
"21/09/02","11:20",2.0,24.5,90.4,1002.4,296.6,0.5,1.4,274.7,0.04,22.9,26.0,"11:12:56",1
"21/09/02","11:30",1.0,24.7,90.8,1002.2,245.9,0.7,2.6,249.5,0.08,23.1,26.1,"11:25:04",1
"21/09/02","11:40",0.4,24.8,90.7,1001.9,216.3,0.8,1.7,180.2,0.11,23.2,26.0,"11:35:36",1
"21/09/02","11:50",0.2,25.0,90.9,1001.7,95.6,0.5,1.3,126.8,0.10,23.4,25.9,"11:49:36",1
"21/09/02","12:00",0.0,25.0,91.1,1001.7,352.1,1.1,2.4,324.0,0.15,23.5,26.0,"11:55:52",1
"21/09/02","12:10",0.2,25.4,91.0,1001.7,296.5,0.8,3.2,332.7,0.18,23.9,26.0,"12:02:08",1
"21/09/02","12:20",0.0,25.8,91.0,1001.2,302.3,0.6,2.0,340.8,0.20,24.3,26.2,"12:11:44",1
"21/09/02","12:30",0.0,26.4,90.7,1001.5,339.5,0.5,1.3,234.9,0.25,24.8,26.1,"12:21:52",1
"21/09/02","12:40",0.0,26.5,90.3,1001.2,16.4,0.5,1.2,327.7,0.19,24.8,26.2,"12:30:56",1
"21/09/02","12:50",0.0,26.2,89.6,1001.2,323.3,0.8,1.9,349.5,0.15,24.4,26.2,"12:44:48",1
"21/09/02","13:00",0.0,26.5,89.3,1001.5,323.5,1.0,2.1,2.4,0.24,24.6,26.1,"12:58:56",1
"21/09/02","13:10",0.0,26.5,88.5,1001.5,320.1,1.1,3.2,347.0,0.20,24.5,26.1,"13:05:20",1
"21/09/02","13:20",0.0,26.4,87.7,1001.5,303.4,1.1,2.6,342.3,0.13,24.2,26.2,"13:10:24",1
"21/09/02","13:30",0.0,26.2,87.5,1000.8,311.7,1.1,2.5,312.8,0.06,24.0,26.0,"13:21:20",1
"21/09/02","13:40",0.0,26.1,87.5,1001.0,305.4,1.2,2.6,348.4,0.06,23.9,25.9,"13:38:48",1
"21/09/02","13:50",0.0,26.1,87.7,1001.0,323.7,1.7,3.3,337.7,0.08,23.9,26.5,"13:45:04",1
"21/09/02","14:00",0.0,26.1,87.9,1000.8,335.4,1.6,2.5,343.3,0.14,24.0,26.2,"13:56:48",1
"21/09/02","14:10",0.0,26.3,87.5,1000.5,327.5,1.3,2.6,346.2,0.19,24.1,26.2,"14:08:32",1
"21/09/02","14:20",0.0,26.7,86.9,1000.8,337.2,1.2,2.1,338.6,0.14,24.4,26.2,"14:15:44",1
"21/09/02","14:30",0.0,26.5,86.1,1000.8,320.8,1.1,2.7,317.6,0.08,24.0,26.3,"14:27:52",1
"21/09/02","14:40",0.0,26.2,85.8,1000.8,339.3,1.3,2.7,350.9,0.03,23.7,26.4,"14:37:20",1
"21/09/02","14:50",0.0,25.9,85.9,1000.5,338.5,1.3,2.8,334.7,0.02,23.4,26.5,"14:40:56",1
"21/09/02","15:00",0.4,25.6,86.2,1001.0,339.6,1.6,3.5,339.0,0.02,23.2,26.4,"14:55:12",1
"21/09/02","15:10",2.0,25.2,86.9,1000.5,347.1,1.0,2.0,330.7,0.03,22.9,26.3,"15:00:08",1
"21/09/02","15:20",0.8,24.8,87.8,1001.0,315.0,0.7,1.7,332.1,0.03,22.7,26.4,"15:12:08",1
"21/09/02","15:30",0.4,24.7,88.6,1000.8,319.1,1.1,2.5,341.8,0.05,22.7,26.5,"15:21:36",1
"21/09/02","15:40",0.4,24.9,89.2,1001.2,323.9,1.0,2.2,343.3,0.06,23.0,26.4,"15:38:48",1
"21/09/02","15:50",0.6,24.6,89.8,1001.2,318.6,1.0,2.7,335.7,0.04,22.9,26.3,"15:42:00",1
"21/09/02","16:00",0.2,24.5,90.3,1001.5,319.4,0.8,2.2,353.1,0.09,22.8,26.3,"15:51:12",1
"21/09/02","16:10",0.0,24.6,90.5,1001.2,329.5,1.0,3.1,343.3,0.08,23.0,26.3,"16:06:40",1
"21/09/02","16:20",0.0,24.8,90.7,1001.2,334.7,0.8,1.9,338.4,0.06,23.2,26.5,"16:17:36",1
"21/09/02","16:30",0.0,24.6,90.7,1001.5,322.6,1.0,2.1,334.8,0.06,23.0,26.2,"16:20:40",1
"21/09/02","16:40",0.0,24.4,90.8,1001.7,311.8,1.0,2.0,333.0,0.03,22.8,26.5,"16:30:32",1
"21/09/02","16:50",0.0,24.3,90.9,1001.0,348.9,1.2,2.2,349.6,0.02,22.8,26.4,"16:47:44",1
"21/09/02","17:00",0.0,24.3,90.9,1001.5,328.5,1.2,2.6,340.6,0.03,22.8,26.3,"16:51:52",1
"21/09/02","17:10",0.0,24.2,91.0,1001.5,323.6,1.0,2.5,319.9,0.02,22.7,26.5,"17:01:12",1
"21/09/02","17:20",0.0,24.4,91.2,1001.5,336.2,1.0,2.7,329.4,0.05,22.9,26.4,"17:12:24",1
"21/09/02","17:30",0.0,24.6,91.0,1001.5,346.8,0.5,1.7,351.8,0.06,23.1,26.4,"17:27:52",1
"21/09/02","17:40",0.0,24.7,90.9,1001.5,347.8,0.7,1.7,8.0,0.04,23.2,26.4,"17:33:52",1
"21/09/02","17:50",0.0,24.6,90.7,1001.5,323.9,0.6,1.7,338.2,0.02,23.0,26.4,"17:43:44",1
"21/09/02","18:00",0.0,24.6,90.7,1001.9,237.5,0.3,0.8,257.0,0.00,23.0,26.1,"17:55:52",1
"21/09/02","18:10",0.0,24.3,90.7,1001.9,334.8,0.6,2.0,342.4,0.00,22.7,26.3,"18:09:52",1
"21/09/02","18:20",0.0,24.4,90.7,1002.2,323.8,0.6,1.3,332.8,0.00,22.8,26.3,"18:10:56",1
"21/09/02","18:30",0.0,24.1,90.7,1002.4,343.1,0.5,1.2,338.6,0.00,22.5,26.2,"18:25:28",1
"21/09/02","18:40",0.0,23.9,91.0,1002.6,343.4,0.7,1.7,337.5,0.00,22.4,26.3,"18:32:56",1
"21/09/02","18:50",0.0,23.7,91.1,1002.4,351.5,0.7,1.2,14.6,0.00,22.2,26.4,"18:43:44",1
"21/09/02","19:00",0.0,23.5,91.3,1002.6,338.3,0.8,2.0,341.1,0.00,22.0,26.4,"18:58:00",1
"21/09/02","19:10",0.0,23.4,91.5,1002.6,337.5,1.1,1.9,331.1,0.00,22.0,26.3,"19:08:16",1
"21/09/02","19:20",0.0,23.3,91.8,1002.6,337.3,1.0,2.0,342.0,0.00,21.9,26.2,"19:16:08",1
"21/09/02","19:30",0.0,23.2,91.9,1002.6,334.1,1.1,2.1,337.3,0.00,21.8,26.2,"19:28:48",1
"21/09/02","19:40",0.0,23.1,92.1,1002.9,328.6,0.7,1.9,341.1,0.00,21.8,26.2,"19:30:32",1
"21/09/02","19:50",0.0,23.1,92.2,1002.6,327.6,0.7,1.6,332.3,0.00,21.8,26.3,"19:48:08",1
"21/09/02","20:00",0.0,23.0,92.4,1002.9,334.1,1.0,1.7,336.2,0.00,21.7,26.1,"19:53:12",1
"21/09/02","20:10",0.0,22.9,92.6,1003.1,329.6,1.3,2.1,333.6,0.00,21.7,26.2,"20:05:08",1
"21/09/02","20:20",0.0,22.9,92.8,1003.6,323.8,1.1,2.1,324.1,0.00,21.7,26.2,"20:12:48",1
"21/09/02","20:30",0.0,22.9,92.9,1003.1,340.2,1.0,1.8,335.7,0.00,21.7,26.3,"20:22:56",1
"21/09/02","20:40",0.0,22.8,93.1,1003.1,338.1,1.0,2.0,337.3,0.00,21.7,26.1,"20:36:40",1
"21/09/02","20:50",0.2,22.7,93.2,1003.4,321.1,1.0,2.1,329.4,0.00,21.6,26.1,"20:41:44",1
"21/09/02","21:00",0.0,22.6,93.3,1003.1,324.0,1.0,1.7,333.3,0.00,21.5,26.3,"20:53:28",1
"21/09/02","21:10",0.0,22.4,93.5,1003.4,312.0,0.8,1.7,322.8,0.00,21.3,25.9,"21:01:36",1
"21/09/02","21:20",0.0,22.4,93.6,1003.6,298.2,0.8,1.3,321.0,0.00,21.4,25.9,"21:10:32",1
"21/09/02","21:30",0.2,22.5,93.7,1003.8,326.0,1.3,2.6,345.6,0.00,21.5,26.1,"21:29:52",1
"21/09/02","21:40",0.0,22.3,93.8,1003.6,331.1,1.2,2.1,347.2,0.00,21.3,26.0,"21:31:36",1
"21/09/02","21:50",0.0,22.3,94.0,1003.4,327.3,1.2,2.4,334.7,0.00,21.3,25.9,"21:49:04",1
"21/09/02","22:00",0.0,22.3,94.1,1003.4,330.3,1.3,2.6,345.4,0.00,21.3,25.8,"21:50:02",1
"21/09/02","22:10",0.0,22.3,94.2,1003.6,327.9,1.5,2.5,338.7,0.00,21.4,26.0,"22:00:40",1
"21/09/02","22:20",0.0,22.2,94.2,1003.6,329.9,2.0,3.3,311.1,0.00,21.3,26.0,"22:18:16",1
"21/09/02","22:30",0.0,22.1,94.3,1003.8,331.5,2.5,5.0,341.1,0.00,21.2,25.7,"22:23:36",1
"21/09/02","22:40",0.0,22.1,94.3,1003.6,330.4,2.1,4.0,330.3,0.00,21.2,25.9,"22:34:24",1
"21/09/02","22:50",0.0,22.1,94.2,1003.8,332.4,1.7,3.1,343.6,0.00,21.2,25.9,"22:48:16",1
"21/09/02","23:00",0.0,21.8,94.3,1003.8,331.8,2.1,4.1,344.5,0.00,20.9,25.9,"22:55:28",1
"21/09/02","23:10",0.0,21.9,94.3,1003.8,322.9,2.1,3.6,329.8,0.00,21.0,26.0,"23:02:48",1
"21/09/02","23:20",0.0,21.8,94.2,1003.6,318.5,2.1,3.3,320.6,0.00,20.9,25.8,"23:19:44",1
"21/09/02","23:30",0.0,21.8,94.2,1003.6,331.1,2.0,3.3,338.9,0.00,20.9,25.8,"23:22:48",1
"21/09/02","23:40",0.0,21.7,94.2,1003.8,327.8,1.7,3.2,325.6,0.00,20.8,25.9,"23:39:52",1
"21/09/02","23:50",0.0,21.7,94.2,1003.8,318.7,1.7,4.0,339.8,0.00,20.8,25.8,"23:49:36",1
"21/09/02","24:00",0.0,21.6,94.2,1003.4,324.4,1.3,2.1,338.8,0.00,20.7,25.9,"23:54:48",1
